Starlink 32100

operational
NORAD ID: 59686 Int'l Des: 2024-086 Owner: SPXS Country: US Constellation: starlink
LEOCIRCULAR

关于 Starlink 32100

正在加载描述...

实时位置

正在加载3D地球...

即将过境

高度历史

Altitude vs Time

uPlot chart will show altitude changes over time

两行轨道根数

1 59686U 24086E 25257.44053757 .00001120 00000-0 50237-4 0 9995
2 59686 43.0018 317.1445 0001621 270.2218 89.8448 15.27580209 77362
Epoch: Sep 14, 2025 • Age: 20 hours

当前状态

高度 489.1 km
速度 7.62 km/s
星下点 -26.56°S, 74.74°E
发射日期 May 8, 2024
运行时间 1.3 years
类型 internet

技术详情

分类 Payload
质量 730.00 kg
干质量 700.00 kg
总质量 730.00 kg
长度 0.30 m
直径 4.10 m
跨度 29.00 m
形状 Box + pan
制造商 SPXS
平台类型 Starlink V2M
阶段状态 In Orbit
所有者/国家 SPXS/US

大型星座

Loading constellations...